Time,TemperatureF,DewpointF,PressureIn,WindDirection,WindDirectionDegrees,WindSpeedMPH,WindSpeedGustMPH,Humidity,HourlyPrecipIn,Conditions,Clouds,dailyrainin,SoftwareType,DateUTC
2013-06-26 00:01:00,73.8,71.6,29.85,SSE,159,2.0,-999.0,93,-99.99,,,-99.99,custom,2013-06-26 04:01:00,
2013-06-26 00:06:00,73.8,73.0,29.87,SE,146,1.0,-999.0,97,-99.99,,,-99.99,custom,2013-06-26 04:06:00,
2013-06-26 00:11:00,73.6,72.7,29.86,SSE,161,1.0,-999.0,97,-99.99,,,-99.99,custom,2013-06-26 04:11:00,
2013-06-26 00:16:00,73.8,73.2,29.84,SW,221,0.0,-999.0,98,-99.99,,,-99.99,custom,2013-06-26 04:16:00,
2013-06-26 00:21:00,73.0,72.7,29.84,WSW,257,1.0,-999.0,99,-99.99,,,-99.99,custom,2013-06-26 04:21:00,
2013-06-26 00:26:00,73.4,72.7,29.87,SE,141,1.0,-999.0,98,-99.99,,,-99.99,custom,2013-06-26 04:26:00,
2013-06-26 00:31:00,73.4,73.2,29.85,North,4,0.0,-999.0,99,-99.99,,,-99.99,custom,2013-06-26 04:31:00,
2013-06-26 00:36:00,73.6,72.7,29.87,East,101,0.0,-999.0,97,-99.99,,,-99.99,custom,2013-06-26 04:36:00,
2013-06-26 00:41:00,73.8,73.6,29.84,SE,133,1.0,-999.0,99,-99.99,,,-99.99,custom,2013-06-26 04:41:00,
2013-06-26 00:46:00,73.6,73.4,29.83,SE,144,0.0,-999.0,99,-99.99,,,-99.99,custom,2013-06-26 04:46:00,
2013-06-26 00:51:00,73.8,73.0,29.84,SE,140,1.0,-999.0,98,-99.99,,,-99.99,custom,2013-06-26 04:51:00,
2013-06-26 00:56:00,73.6,73.4,29.84,ESE,112,0.0,-999.0,99,-99.99,,,-99.99,custom,2013-06-26 04:56:00,
2013-06-26 01:01:00,73.4,73.0,29.83,SSE,161,1.0,-999.0,99,-99.99,,,-99.99,custom,2013-06-26 05:01:00,
2013-06-26 01:06:00,73.6,73.2,29.83,SSE,161,0.0,-999.0,98,-99.99,,,-99.99,custom,2013-06-26 05:06:00,
2013-06-26 01:11:00,73.6,73.4,29.87,SE,133,0.0,-999.0,99,-99.99,,,-99.99,custom,2013-06-26 05:11:00,
2013-06-26 01:16:00,73.8,73.6,29.84,East,96,0.0,-999.0,99,-99.99,,,-99.99,custom,2013-06-26 05:16:00,
2013-06-26 01:21:00,73.4,73.0,29.84,SSE,154,0.0,-999.0,99,-99.99,,,-99.99,custom,2013-06-26 05:21:00,
2013-06-26 01:26:00,73.9,72.1,29.84,SE,133,1.0,-999.0,94,-99.99,,,-99.99,custom,2013-06-26 05:26:00,
2013-06-26 01:31:00,74.3,72.9,29.84,ESE,111,0.0,-999.0,95,-99.99,,,-99.99,custom,2013-06-26 05:31:00,
2013-06-26 01:36:00,74.3,73.6,29.86,ESE,112,1.0,-999.0,97,-99.99,,,-99.99,custom,2013-06-26 05:36:00,
2013-06-26 01:41:00,74.3,74.1,29.83,SE,140,0.0,-999.0,99,-99.99,,,-99.99,custom,2013-06-26 05:41:00,
2013-06-26 01:46:00,74.3,74.1,29.85,SSE,149,0.0,-999.0,99,-99.99,,,-99.99,custom,2013-06-26 05:46:00,
2013-06-26 01:51:00,74.5,73.8,29.84,SE,127,1.0,-999.0,98,-99.99,,,-99.99,custom,2013-06-26 05:51:00,
2013-06-26 01:56:00,74.7,72.9,29.83,SE,135,1.0,-999.0,94,-99.99,,,-99.99,custom,2013-06-26 05:56:00,
2013-06-26 02:01:00,74.7,73.6,29.81,SE,128,0.0,-999.0,97,-99.99,,,-99.99,custom,2013-06-26 06:01:00,
2013-06-26 02:06:00,74.5,73.8,29.83,SE,138,0.0,-999.0,98,-99.99,,,-99.99,custom,2013-06-26 06:06:00,
2013-06-26 02:11:00,74.8,72.3,29.82,SE,142,1.0,-999.0,92,-99.99,,,-99.99,custom,2013-06-26 06:11:00,
2013-06-26 02:16:00,73.8,71.6,29.83,WSW,253,1.0,-999.0,93,-99.99,,,-99.99,custom,2013-06-26 06:16:00,
2013-06-26 02:21:00,72.9,70.9,29.85,West,270,4.0,-999.0,94,-99.99,,,-99.99,custom,2013-06-26 06:21:00,
2013-06-26 02:26:00,73.2,72.5,29.81,WSW,241,0.0,-999.0,97,-99.99,,,-99.99,custom,2013-06-26 06:26:00,
2013-06-26 02:31:00,73.0,72.3,29.82,South,170,1.0,-999.0,98,-99.99,,,-99.99,custom,2013-06-26 06:31:00,
2013-06-26 02:36:00,73.0,71.4,29.82,SSW,200,1.0,-999.0,94,-99.99,,,-99.99,custom,2013-06-26 06:36:00,
2013-06-26 02:41:00,73.0,71.4,29.85,SSE,168,0.0,-999.0,94,-99.99,,,-99.99,custom,2013-06-26 06:41:00,
2013-06-26 02:46:00,73.0,72.3,29.84,SSE,149,1.0,-999.0,97,-99.99,,,-99.99,custom,2013-06-26 06:46:00,
2013-06-26 02:51:00,72.9,71.4,29.85,South,171,2.0,-999.0,95,-99.99,,,-99.99,custom,2013-06-26 06:51:00,
2013-06-26 02:56:00,72.9,72.1,29.82,SE,132,1.0,-999.0,98,-99.99,,,-99.99,custom,2013-06-26 06:56:00,
2013-06-26 03:01:00,72.9,70.9,29.82,South,174,2.0,-999.0,93,-99.99,,,-99.99,custom,2013-06-26 07:01:00,
2013-06-26 03:06:00,72.5,71.8,29.82,SSW,206,1.0,-999.0,98,-99.99,,,-99.99,custom,2013-06-26 07:06:00,
2013-06-26 03:11:00,72.9,71.8,29.82,South,178,1.0,-999.0,96,-99.99,,,-99.99,custom,2013-06-26 07:11:00,
2013-06-26 03:16:00,72.9,72.0,29.83,South,173,0.0,-999.0,97,-99.99,,,-99.99,custom,2013-06-26 07:16:00,
2013-06-26 03:21:00,73.2,72.3,29.81,ESE,114,0.0,-999.0,97,-99.99,,,-99.99,custom,2013-06-26 07:21:00,
2013-06-26 03:26:00,72.5,72.1,29.82,NNW,343,0.0,-999.0,99,-99.99,,,-99.99,custom,2013-06-26 07:26:00,
2013-06-26 03:31:00,72.1,71.2,29.85,ESE,104,1.0,-999.0,97,-99.99,,,-99.99,custom,2013-06-26 07:31:00,
2013-06-26 03:36:00,71.8,71.2,29.83,South,173,0.0,-999.0,98,-99.99,,,-99.99,custom,2013-06-26 07:36:00,
2013-06-26 03:41:00,72.3,70.9,29.82,ESE,121,1.0,-999.0,95,-99.99,,,-99.99,custom,2013-06-26 07:41:00,
2013-06-26 03:46:00,72.3,71.4,29.83,SSE,164,0.0,-999.0,97,-99.99,,,-99.99,custom,2013-06-26 07:46:00,
2013-06-26 03:51:00,72.3,72.0,29.83,ESE,123,0.0,-999.0,99,-99.99,,,-99.99,custom,2013-06-26 07:51:00,
2013-06-26 03:57:00,72.3,70.7,29.83,SSE,153,1.0,-999.0,95,-99.99,,,-99.99,custom,2013-06-26 07:57:00,
2013-06-26 04:02:00,71.6,69.8,29.84,SSW,203,1.0,-999.0,94,-99.99,,,-99.99,custom,2013-06-26 08:02:00,
2013-06-26 04:07:00,71.4,70.2,29.83,SSW,194,1.0,-999.0,96,-99.99,,,-99.99,custom,2013-06-26 08:07:00,
2013-06-26 04:12:00,71.4,70.2,29.84,South,173,2.0,-999.0,96,-99.99,,,-99.99,custom,2013-06-26 08:12:00,
2013-06-26 04:17:00,71.2,70.2,29.83,West,263,0.0,-999.0,96,-99.99,,,-99.99,custom,2013-06-26 08:17:00,
2013-06-26 04:22:00,71.4,71.1,29.85,WSW,237,1.0,-999.0,99,-99.99,,,-99.99,custom,2013-06-26 08:22:00,
2013-06-26 04:27:00,71.2,71.1,29.85,SSE,167,0.0,-999.0,99,-99.99,,,-99.99,custom,2013-06-26 08:27:00,
2013-06-26 04:32:00,71.4,70.5,29.86,South,181,1.0,-999.0,97,-99.99,,,-99.99,custom,2013-06-26 08:32:00,
2013-06-26 04:37:00,71.4,71.1,29.84,SSE,159,1.0,-999.0,98,-99.99,,,-99.99,custom,2013-06-26 08:37:00,
2013-06-26 04:42:00,71.8,70.9,29.84,SSW,210,1.0,-999.0,97,-99.99,,,-99.99,custom,2013-06-26 08:42:00,
2013-06-26 04:47:00,71.4,70.7,29.82,South,179,1.0,-999.0,98,-99.99,,,-99.99,custom,2013-06-26 08:47:00,
2013-06-26 04:52:00,71.4,71.2,29.84,South,186,1.0,-999.0,99,-99.99,,,-99.99,custom,2013-06-26 08:52:00,
2013-06-26 04:57:00,71.2,70.7,29.85,ENE,68,0.0,-999.0,98,-99.99,,,-99.99,custom,2013-06-26 08:57:00,
2013-06-26 05:02:00,72.0,71.4,29.86,ESE,118,1.0,-999.0,98,-99.99,,,-99.99,custom,2013-06-26 09:02:00,
2013-06-26 05:07:00,72.0,71.8,29.84,SE,136,0.0,-999.0,99,-99.99,,,-99.99,custom,2013-06-26 09:07:00,
2013-06-26 05:12:00,71.8,71.1,29.84,SSE,147,1.0,-999.0,97,-99.99,,,-99.99,custom,2013-06-26 09:12:00,
2013-06-26 05:17:00,72.3,71.6,29.85,East,79,0.0,-999.0,98,-99.99,,,-99.99,custom,2013-06-26 09:17:00,
2013-06-26 05:22:00,72.3,72.1,29.85,ESE,111,0.0,-999.0,99,-99.99,,,-99.99,custom,2013-06-26 09:22:00,
2013-06-26 05:27:00,71.4,71.2,29.83,East,86,0.0,-999.0,99,-99.99,,,-99.99,custom,2013-06-26 09:27:00,
2013-06-26 05:32:00,71.4,71.2,29.80,NE,45,0.0,-999.0,99,-99.99,,,-99.99,custom,2013-06-26 09:32:00,
2013-06-26 05:37:00,71.6,71.4,29.83,East,94,0.0,-999.0,99,-99.99,,,-99.99,custom,2013-06-26 09:37:00,
2013-06-26 05:42:00,72.3,70.3,29.85,SSE,148,0.0,-999.0,93,-99.99,,,-99.99,custom,2013-06-26 09:42:00,
2013-06-26 05:47:00,71.8,71.2,29.90,SSE,167,0.0,-999.0,98,-99.99,,,-99.99,custom,2013-06-26 09:47:00,
2013-06-26 05:52:00,72.7,70.9,29.87,ESE,104,1.0,-999.0,94,-99.99,,,-99.99,custom,2013-06-26 09:52:00,
2013-06-26 05:57:00,73.6,70.9,29.83,East,93,1.0,-999.0,91,-99.99,,,-99.99,custom,2013-06-26 09:57:00,
2013-06-26 06:02:00,73.9,73.6,29.83,ESE,113,1.0,-999.0,99,-99.99,,,-99.99,custom,2013-06-26 10:02:00,
2013-06-26 06:07:00,73.2,73.0,29.86,North,0,0.0,-999.0,99,-99.99,,,-99.99,custom,2013-06-26 10:07:00,
2013-06-26 06:12:00,73.0,72.1,29.84,ESE,110,1.0,-999.0,97,-99.99,,,-99.99,custom,2013-06-26 10:12:00,
2013-06-26 06:17:00,73.6,71.8,29.84,NE,44,0.0,-999.0,94,-99.99,,,-99.99,custom,2013-06-26 10:17:00,
2013-06-26 06:22:00,74.1,73.2,29.84,SE,144,1.0,-999.0,97,-99.99,,,-99.99,custom,2013-06-26 10:22:00,
2013-06-26 06:27:00,74.1,73.6,29.85,East,83,0.0,-999.0,98,-99.99,,,-99.99,custom,2013-06-26 10:27:00,
2013-06-26 06:32:00,72.7,72.3,29.83,SE,130,0.0,-999.0,99,-99.99,,,-99.99,custom,2013-06-26 10:32:00,
2013-06-26 06:37:00,72.9,71.6,29.84,SE,137,1.0,-999.0,96,-99.99,,,-99.99,custom,2013-06-26 10:37:00,
2013-06-26 06:42:00,73.4,72.9,29.85,SSW,205,0.0,-999.0,98,-99.99,,,-99.99,custom,2013-06-26 10:42:00,
2013-06-26 06:47:00,73.8,72.1,29.84,South,173,0.0,-999.0,94,-99.99,,,-99.99,custom,2013-06-26 10:47:00,
2013-06-26 06:52:00,73.9,70.7,29.85,NNE,33,1.0,-999.0,89,-99.99,,,-99.99,custom,2013-06-26 10:52:00,
2013-06-26 06:57:00,73.4,71.6,29.85,ENE,75,1.0,-999.0,94,-99.99,,,-99.99,custom,2013-06-26 10:57:00,
2013-06-26 07:02:00,73.9,71.8,29.87,NNE,23,1.0,-999.0,93,-99.99,,,-99.99,custom,2013-06-26 11:02:00,
2013-06-26 07:07:00,72.9,72.3,29.86,SSW,210,1.0,-999.0,98,-99.99,,,-99.99,custom,2013-06-26 11:07:00,
2013-06-26 07:12:00,73.8,73.2,29.84,SE,131,0.0,-999.0,98,-99.99,,,-99.99,custom,2013-06-26 11:12:00,
2013-06-26 07:17:00,74.1,72.5,29.85,North,359,0.0,-999.0,95,-99.99,,,-99.99,custom,2013-06-26 11:17:00,
2013-06-26 07:22:00,75.9,72.9,29.83,East,95,1.0,-999.0,90,-99.99,,,-99.99,custom,2013-06-26 11:22:00,
2013-06-26 07:27:00,77.2,74.5,29.85,East,84,1.0,-999.0,91,-99.99,,,-99.99,custom,2013-06-26 11:27:00,
2013-06-26 07:32:00,77.2,73.4,29.85,SSE,161,1.0,-999.0,88,-99.99,,,-99.99,custom,2013-06-26 11:32:00,
2013-06-26 07:37:00,76.1,72.3,29.88,SSE,162,1.0,-999.0,88,-99.99,,,-99.99,custom,2013-06-26 11:37:00,
2013-06-26 07:42:00,75.4,72.3,29.88,NNW,339,0.0,-999.0,90,-99.99,,,-99.99,custom,2013-06-26 11:42:00,
2013-06-26 07:47:00,75.7,74.1,29.87,SE,126,1.0,-999.0,94,-99.99,,,-99.99,custom,2013-06-26 11:47:00,
2013-06-26 07:52:00,76.3,75.2,29.87,SW,217,0.0,-999.0,96,-99.99,,,-99.99,custom,2013-06-26 11:52:00,
2013-06-26 07:57:00,76.8,73.9,29.86,ESE,113,1.0,-999.0,91,-99.99,,,-99.99,custom,2013-06-26 11:57:00,
2013-06-26 08:02:00,74.8,71.6,29.91,SSW,204,0.0,-999.0,90,-99.99,,,-99.99,custom,2013-06-26 12:02:00,
2013-06-26 08:07:00,75.6,75.2,29.88,SE,139,0.0,-999.0,98,-99.99,,,-99.99,custom,2013-06-26 12:07:00,
2013-06-26 08:12:00,75.9,70.9,29.88,West,270,4.0,-999.0,84,-99.99,,,-99.99,custom,2013-06-26 12:12:00,
2013-06-26 08:17:00,77.2,75.4,29.86,East,79,1.0,-999.0,94,-99.99,,,-99.99,custom,2013-06-26 12:17:00,
2013-06-26 08:22:00,77.0,72.7,29.86,SSW,211,1.0,-999.0,87,-99.99,,,-99.99,custom,2013-06-26 12:22:00,
2013-06-26 08:27:00,76.6,71.2,29.88,WNW,283,2.0,-999.0,83,-99.99,,,-99.99,custom,2013-06-26 12:27:00,
2013-06-26 08:32:00,78.4,75.4,29.88,East,85,0.0,-999.0,90,-99.99,,,-99.99,custom,2013-06-26 12:32:00,
2013-06-26 08:37:00,79.7,75.0,29.89,NW,312,1.0,-999.0,86,-99.99,,,-99.99,custom,2013-06-26 12:37:00,
2013-06-26 08:42:00,81.1,75.2,29.88,North,350,1.0,-999.0,82,-99.99,,,-99.99,custom,2013-06-26 12:42:00,
2013-06-26 08:47:00,79.3,72.3,29.86,North,5,1.0,-999.0,79,-99.99,,,-99.99,custom,2013-06-26 12:47:00,
2013-06-26 08:52:00,79.2,72.5,29.86,SW,223,1.0,-999.0,80,-99.99,,,-99.99,custom,2013-06-26 12:52:00,
2013-06-26 08:57:00,80.8,76.6,29.88,WSW,241,1.0,-999.0,87,-99.99,,,-99.99,custom,2013-06-26 12:57:00,
2013-06-26 09:02:00,81.9,75.7,29.88,NE,40,1.0,-999.0,82,-99.99,,,-99.99,custom,2013-06-26 13:02:00,
2013-06-26 09:07:00,80.6,74.8,29.86,NNE,20,0.0,-999.0,83,-99.99,,,-99.99,custom,2013-06-26 13:07:00,
2013-06-26 09:12:00,81.1,75.2,29.87,NE,51,0.0,-999.0,82,-99.99,,,-99.99,custom,2013-06-26 13:12:00,
2013-06-26 09:17:00,81.9,74.1,29.86,NW,321,2.0,-999.0,77,-99.99,,,-99.99,custom,2013-06-26 13:17:00,
2013-06-26 09:22:00,83.7,79.0,29.86,SW,224,0.0,-999.0,86,-99.99,,,-99.99,custom,2013-06-26 13:22:00,
2013-06-26 09:27:00,82.2,71.6,29.85,North,354,3.0,-999.0,70,-99.99,,,-99.99,custom,2013-06-26 13:27:00,
2013-06-26 09:32:00,81.3,72.3,29.86,NW,316,1.0,-999.0,74,-99.99,,,-99.99,custom,2013-06-26 13:32:00,
2013-06-26 09:37:00,82.2,75.0,29.85,East,95,1.0,-999.0,79,-99.99,,,-99.99,custom,2013-06-26 13:37:00,
2013-06-26 09:42:00,82.2,76.1,29.87,SW,225,1.0,-999.0,82,-99.99,,,-99.99,custom,2013-06-26 13:42:00,
2013-06-26 09:47:00,82.9,77.5,29.88,SW,227,0.0,-999.0,84,-99.99,,,-99.99,custom,2013-06-26 13:47:00,
2013-06-26 09:52:00,82.9,75.7,29.86,SSE,152,1.0,-999.0,79,-99.99,,,-99.99,custom,2013-06-26 13:52:00,
2013-06-26 09:57:00,82.9,75.7,29.90,SSW,206,2.0,-999.0,79,-99.99,,,-99.99,custom,2013-06-26 13:57:00,
2013-06-26 10:02:00,81.9,72.1,29.87,SW,217,3.0,-999.0,72,-99.99,,,-99.99,custom,2013-06-26 14:02:00,
2013-06-26 10:07:00,82.6,75.4,29.86,WSW,257,2.0,-999.0,79,-99.99,,,-99.99,custom,2013-06-26 14:07:00,
2013-06-26 10:12:00,82.9,73.0,29.88,WNW,295,4.0,-999.0,72,-99.99,,,-99.99,custom,2013-06-26 14:12:00,
2013-06-26 10:17:00,82.8,74.5,29.84,ENE,68,1.0,-999.0,76,-99.99,,,-99.99,custom,2013-06-26 14:17:00,
2013-06-26 10:22:00,84.4,74.8,29.84,NNE,23,0.0,-999.0,73,-99.99,,,-99.99,custom,2013-06-26 14:22:00,
2013-06-26 10:27:00,83.3,77.9,29.88,SSE,162,1.0,-999.0,84,-99.99,,,-99.99,custom,2013-06-26 14:27:00,
2013-06-26 10:32:00,83.8,74.3,29.88,SSE,158,3.0,-999.0,73,-99.99,,,-99.99,custom,2013-06-26 14:32:00,
2013-06-26 10:37:00,82.4,74.7,29.86,WSW,246,2.0,-999.0,78,-99.99,,,-99.99,custom,2013-06-26 14:37:00,
2013-06-26 10:42:00,82.6,77.5,29.89,South,175,0.0,-999.0,84,-99.99,,,-99.99,custom,2013-06-26 14:42:00,
2013-06-26 10:47:00,82.9,77.7,29.86,SSE,160,1.0,-999.0,84,-99.99,,,-99.99,custom,2013-06-26 14:47:00,
2013-06-26 10:52:00,83.5,78.3,29.86,SW,224,0.0,-999.0,84,-99.99,,,-99.99,custom,2013-06-26 14:52:00,
2013-06-26 10:57:00,83.1,75.9,29.86,SSE,149,0.0,-999.0,79,-99.99,,,-99.99,custom,2013-06-26 14:57:00,
2013-06-26 11:02:00,84.4,75.6,29.87,SSE,162,1.0,-999.0,75,-99.99,,,-99.99,custom,2013-06-26 15:02:00,
2013-06-26 11:07:00,84.4,74.8,29.88,South,170,1.0,-999.0,73,-99.99,,,-99.99,custom,2013-06-26 15:07:00,
2013-06-26 11:12:00,83.3,79.3,29.88,North,0,0.0,-999.0,88,-99.99,,,-99.99,custom,2013-06-26 15:12:00,
2013-06-26 11:17:00,81.3,75.2,29.86,South,181,1.0,-999.0,82,-99.99,,,-99.99,custom,2013-06-26 15:17:00,
2013-06-26 11:22:00,80.8,73.4,29.85,South,169,1.0,-999.0,78,-99.99,,,-99.99,custom,2013-06-26 15:22:00,
2013-06-26 11:27:00,80.2,75.0,29.89,SW,220,1.0,-999.0,84,-99.99,,,-99.99,custom,2013-06-26 15:27:00,
2013-06-26 11:32:00,79.5,77.9,29.87,SSE,157,0.0,-999.0,95,-99.99,,,-99.99,custom,2013-06-26 15:32:00,
2013-06-26 11:37:00,80.2,76.6,29.86,South,174,0.0,-999.0,89,-99.99,,,-99.99,custom,2013-06-26 15:37:00,
2013-06-26 11:42:00,80.8,77.2,29.87,West,273,1.0,-999.0,89,-99.99,,,-99.99,custom,2013-06-26 15:42:00,
2013-06-26 11:47:00,82.2,77.7,29.88,South,182,0.0,-999.0,86,-99.99,,,-99.99,custom,2013-06-26 15:47:00,
2013-06-26 11:52:00,82.9,79.7,29.88,SW,216,0.0,-999.0,90,-99.99,,,-99.99,custom,2013-06-26 15:52:00,
2013-06-26 11:57:00,82.4,77.9,29.87,SW,223,0.0,-999.0,86,-99.99,,,-99.99,custom,2013-06-26 15:57:00,
2013-06-26 12:02:00,81.9,74.1,29.89,NNE,12,0.0,-999.0,77,-99.99,,,-99.99,custom,2013-06-26 16:02:00,
2013-06-26 12:07:00,80.8,78.3,29.87,North,359,0.0,-999.0,92,-99.99,,,-99.99,custom,2013-06-26 16:07:00,
2013-06-26 12:12:00,79.0,77.9,29.89,East,79,0.0,-999.0,96,-99.99,,,-99.99,custom,2013-06-26 16:12:00,
2013-06-26 12:17:00,80.6,78.8,29.87,ENE,63,1.0,-999.0,94,-99.99,,,-99.99,custom,2013-06-26 16:17:00,
2013-06-26 12:22:00,80.8,79.2,29.86,East,83,2.0,-999.0,94,-99.99,,,-99.99,custom,2013-06-26 16:22:00,
2013-06-26 12:27:00,80.4,80.2,29.88,ESE,110,0.0,-999.0,99,-99.99,,,-99.99,custom,2013-06-26 16:27:00,
2013-06-26 12:32:00,79.7,78.3,29.86,East,80,1.0,-999.0,95,-99.99,,,-99.99,custom,2013-06-26 16:32:00,
2013-06-26 12:37:00,77.9,77.2,29.85,East,84,0.0,-999.0,98,-99.99,,,-99.99,custom,2013-06-26 16:37:00,
2013-06-26 12:42:00,77.7,77.5,29.86,ESE,122,0.0,-999.0,99,-99.99,,,-99.99,custom,2013-06-26 16:42:00,
2013-06-26 12:47:00,76.3,76.1,29.87,NNW,341,0.0,-999.0,99,-99.99,,,-99.99,custom,2013-06-26 16:47:00,
2013-06-26 12:52:00,75.9,75.0,29.88,ESE,105,1.0,-999.0,97,-99.99,,,-99.99,custom,2013-06-26 16:52:00,
2013-06-26 12:57:00,77.2,77.0,29.87,ESE,116,1.0,-999.0,99,-99.99,,,-99.99,custom,2013-06-26 16:57:00,
2013-06-26 13:02:00,77.4,77.0,29.88,ESE,115,1.0,-999.0,99,-99.99,,,-99.99,custom,2013-06-26 17:02:00,
2013-06-26 13:07:00,77.2,77.0,29.86,ENE,64,0.0,-999.0,99,-99.99,,,-99.99,custom,2013-06-26 17:07:00,
2013-06-26 13:12:00,78.3,78.1,29.87,North,353,0.0,-999.0,99,-99.99,,,-99.99,custom,2013-06-26 17:12:00,
2013-06-26 13:17:00,79.0,78.6,29.86,ESE,108,1.0,-999.0,99,-99.99,,,-99.99,custom,2013-06-26 17:17:00,
2013-06-26 13:23:00,79.5,79.2,29.86,ESE,123,0.0,-999.0,98,-99.99,,,-99.99,custom,2013-06-26 17:23:00,
2013-06-26 13:28:00,80.4,77.9,29.87,ENE,57,0.0,-999.0,92,-99.99,,,-99.99,custom,2013-06-26 17:28:00,
2013-06-26 13:33:00,81.0,76.5,29.87,NE,48,1.0,-999.0,86,-99.99,,,-99.99,custom,2013-06-26 17:33:00,
2013-06-26 13:38:00,79.2,76.6,29.84,NNE,13,1.0,-999.0,92,-99.99,,,-99.99,custom,2013-06-26 17:38:00,
2013-06-26 13:43:00,79.3,78.6,29.86,NE,50,0.0,-999.0,98,-99.99,,,-99.99,custom,2013-06-26 17:43:00,
2013-06-26 13:48:00,79.5,79.2,29.90,NNE,15,0.0,-999.0,99,-99.99,,,-99.99,custom,2013-06-26 17:48:00,
2013-06-26 13:53:00,81.1,81.0,29.87,SSE,162,0.0,-999.0,99,-99.99,,,-99.99,custom,2013-06-26 17:53:00,
2013-06-26 13:58:00,82.6,79.7,29.87,NE,52,0.0,-999.0,91,-99.99,,,-99.99,custom,2013-06-26 17:58:00,
2013-06-26 14:03:00,82.9,81.7,29.88,East,96,0.0,-999.0,96,-99.99,,,-99.99,custom,2013-06-26 18:03:00,
2013-06-26 14:08:00,82.4,80.4,29.87,SE,126,0.0,-999.0,93,-99.99,,,-99.99,custom,2013-06-26 18:08:00,
2013-06-26 14:13:00,83.7,77.9,29.86,North,2,0.0,-999.0,83,-99.99,,,-99.99,custom,2013-06-26 18:13:00,
2013-06-26 14:18:00,83.3,80.8,29.88,East,83,0.0,-999.0,92,-99.99,,,-99.99,custom,2013-06-26 18:18:00,
2013-06-26 14:23:00,85.5,79.7,29.87,ENE,67,1.0,-999.0,83,-99.99,,,-99.99,custom,2013-06-26 18:23:00,
2013-06-26 14:28:00,84.7,75.6,29.86,North,4,1.0,-999.0,74,-99.99,,,-99.99,custom,2013-06-26 18:28:00,
2013-06-26 14:33:00,83.5,77.5,29.88,ENE,71,1.0,-999.0,82,-99.99,,,-99.99,custom,2013-06-26 18:33:00,
2013-06-26 14:38:00,83.7,75.7,29.85,North,8,2.0,-999.0,77,-99.99,,,-99.99,custom,2013-06-26 18:38:00,
2013-06-26 14:43:00,85.3,80.6,29.86,East,92,1.0,-999.0,86,-99.99,,,-99.99,custom,2013-06-26 18:43:00,
2013-06-26 14:48:00,85.6,80.4,29.86,ESE,119,1.0,-999.0,85,-99.99,,,-99.99,custom,2013-06-26 18:48:00,
2013-06-26 14:53:00,84.9,80.6,29.86,SSE,165,0.0,-999.0,87,-99.99,,,-99.99,custom,2013-06-26 18:53:00,
2013-06-26 14:58:00,82.6,78.8,29.83,NW,320,0.0,-999.0,88,-99.99,,,-99.99,custom,2013-06-26 18:58:00,
2013-06-26 15:03:00,82.0,78.6,29.86,ENE,63,0.0,-999.0,89,-99.99,,,-99.99,custom,2013-06-26 19:03:00,
2013-06-26 15:08:00,82.8,77.2,29.86,SW,228,0.0,-999.0,83,-99.99,,,-99.99,custom,2013-06-26 19:08:00,
2013-06-26 15:13:00,82.8,79.0,29.84,NE,34,1.0,-999.0,88,-99.99,,,-99.99,custom,2013-06-26 19:13:00,
2013-06-26 15:18:00,85.3,78.1,29.85,ENE,70,1.0,-999.0,79,-99.99,,,-99.99,custom,2013-06-26 19:18:00,
2013-06-26 15:23:00,84.4,77.7,29.85,NE,37,0.0,-999.0,80,-99.99,,,-99.99,custom,2013-06-26 19:23:00,
2013-06-26 15:28:00,83.5,80.1,29.86,NNE,27,0.0,-999.0,89,-99.99,,,-99.99,custom,2013-06-26 19:28:00,
2013-06-26 15:33:00,82.0,76.8,29.84,NE,42,0.0,-999.0,84,-99.99,,,-99.99,custom,2013-06-26 19:33:00,
2013-06-26 15:38:00,81.9,79.3,29.87,NNW,329,0.0,-999.0,92,-99.99,,,-99.99,custom,2013-06-26 19:38:00,
2013-06-26 15:43:00,81.3,76.8,29.85,North,354,0.0,-999.0,86,-99.99,,,-99.99,custom,2013-06-26 19:43:00,
2013-06-26 15:48:00,81.1,78.1,29.87,North,354,0.0,-999.0,90,-99.99,,,-99.99,custom,2013-06-26 19:48:00,
2013-06-26 15:53:00,80.8,77.7,29.84,WSW,244,0.0,-999.0,90,-99.99,,,-99.99,custom,2013-06-26 19:53:00,
2013-06-26 15:58:00,80.6,76.8,29.85,North,354,1.0,-999.0,88,-99.99,,,-99.99,custom,2013-06-26 19:58:00,
2013-06-26 16:03:00,80.2,75.9,29.87,West,265,2.0,-999.0,87,-99.99,,,-99.99,custom,2013-06-26 20:03:00,
2013-06-26 16:08:00,79.2,73.4,29.87,NNW,332,0.0,-999.0,83,-99.99,,,-99.99,custom,2013-06-26 20:08:00,
2013-06-26 16:13:00,79.7,75.6,29.87,North,7,0.0,-999.0,87,-99.99,,,-99.99,custom,2013-06-26 20:13:00,
2013-06-26 16:18:00,78.8,73.0,29.88,SSW,194,0.0,-999.0,82,-99.99,,,-99.99,custom,2013-06-26 20:18:00,
2013-06-26 16:23:00,78.8,75.2,29.88,SE,144,0.0,-999.0,89,-99.99,,,-99.99,custom,2013-06-26 20:23:00,
2013-06-26 16:28:00,78.1,70.9,29.87,NW,311,1.0,-999.0,79,-99.99,,,-99.99,custom,2013-06-26 20:28:00,
2013-06-26 16:33:00,79.7,75.9,29.88,South,173,0.0,-999.0,88,-99.99,,,-99.99,custom,2013-06-26 20:33:00,
2013-06-26 16:38:00,79.9,76.3,29.84,South,174,0.0,-999.0,89,-99.99,,,-99.99,custom,2013-06-26 20:38:00,
2013-06-26 16:43:00,80.2,76.8,29.87,SSE,164,0.0,-999.0,89,-99.99,,,-99.99,custom,2013-06-26 20:43:00,
2013-06-26 16:48:00,80.1,76.1,29.88,SSW,204,1.0,-999.0,88,-99.99,,,-99.99,custom,2013-06-26 20:48:00,
2013-06-26 16:53:00,80.6,75.2,29.87,NE,39,1.0,-999.0,84,-99.99,,,-99.99,custom,2013-06-26 20:53:00,
2013-06-26 16:58:00,80.1,77.0,29.87,ENE,66,1.0,-999.0,90,-99.99,,,-99.99,custom,2013-06-26 20:58:00,
2013-06-26 17:03:00,79.3,75.9,29.87,NE,40,1.0,-999.0,89,-99.99,,,-99.99,custom,2013-06-26 21:03:00,
2013-06-26 17:08:00,78.8,74.3,29.88,SE,124,0.0,-999.0,86,-99.99,,,-99.99,custom,2013-06-26 21:08:00,
2013-06-26 17:13:00,79.0,75.7,29.86,ESE,108,1.0,-999.0,90,-99.99,,,-99.99,custom,2013-06-26 21:13:00,
2013-06-26 17:18:00,79.3,73.6,29.88,NNE,15,1.0,-999.0,82,-99.99,,,-99.99,custom,2013-06-26 21:18:00,
2013-06-26 17:23:00,78.4,76.3,29.87,East,81,0.0,-999.0,93,-99.99,,,-99.99,custom,2013-06-26 21:23:00,
2013-06-26 17:28:00,77.4,73.9,29.88,NNE,25,1.0,-999.0,89,-99.99,,,-99.99,custom,2013-06-26 21:28:00,
2013-06-26 17:33:00,75.9,73.0,29.87,NNE,17,2.0,-999.0,91,-99.99,,,-99.99,custom,2013-06-26 21:33:00,
2013-06-26 17:38:00,74.7,74.5,29.88,East,87,3.0,-999.0,99,-99.99,,,-99.99,custom,2013-06-26 21:38:00,
2013-06-26 17:43:00,73.2,72.3,29.89,NNE,21,1.0,-999.0,97,-99.99,,,-99.99,custom,2013-06-26 21:43:00,
2013-06-26 17:48:00,72.9,72.1,29.88,NE,47,1.0,-999.0,97,-99.99,,,-99.99,custom,2013-06-26 21:48:00,
2013-06-26 17:53:00,73.0,72.9,29.87,NNE,21,1.0,-999.0,99,-99.99,,,-99.99,custom,2013-06-26 21:53:00,
2013-06-26 17:58:00,72.7,72.5,29.88,North,350,3.0,-999.0,99,-99.99,,,-99.99,custom,2013-06-26 21:58:00,
2013-06-26 18:03:00,73.2,73.0,29.90,NE,44,1.0,-999.0,99,-99.99,,,-99.99,custom,2013-06-26 22:03:00,
2013-06-26 18:08:00,73.2,73.0,29.88,NE,50,1.0,-999.0,99,-99.99,,,-99.99,custom,2013-06-26 22:08:00,
2013-06-26 18:13:00,72.9,72.7,29.92,ENE,74,2.0,-999.0,99,-99.99,,,-99.99,custom,2013-06-26 22:13:00,
2013-06-26 18:18:00,72.9,72.7,29.91,NNE,29,0.0,-999.0,99,-99.99,,,-99.99,custom,2013-06-26 22:18:00,
2013-06-26 18:23:00,73.0,72.9,29.87,NE,45,1.0,-999.0,99,-99.99,,,-99.99,custom,2013-06-26 22:23:00,
2013-06-26 18:28:00,72.9,72.3,29.92,North,9,2.0,-999.0,98,-99.99,,,-99.99,custom,2013-06-26 22:28:00,
2013-06-26 18:33:00,73.2,72.9,29.87,ENE,78,0.0,-999.0,99,-99.99,,,-99.99,custom,2013-06-26 22:33:00,
2013-06-26 18:38:00,73.9,73.8,29.87,East,100,1.0,-999.0,99,-99.99,,,-99.99,custom,2013-06-26 22:38:00,
2013-06-26 18:43:00,74.1,73.9,29.89,ESE,106,0.0,-999.0,99,-99.99,,,-99.99,custom,2013-06-26 22:43:00,
2013-06-26 18:48:00,75.0,74.8,29.87,NE,52,1.0,-999.0,99,-99.99,,,-99.99,custom,2013-06-26 22:48:00,
2013-06-26 18:53:00,75.2,75.0,29.88,East,80,0.0,-999.0,99,-99.99,,,-99.99,custom,2013-06-26 22:53:00,
2013-06-26 18:58:00,75.9,75.2,29.90,ENE,64,0.0,-999.0,97,-99.99,,,-99.99,custom,2013-06-26 22:58:00,
2013-06-26 19:03:00,75.9,75.2,29.90,East,92,1.0,-999.0,97,-99.99,,,-99.99,custom,2013-06-26 23:03:00,
2013-06-26 19:08:00,76.8,75.6,29.90,East,90,1.0,-999.0,96,-99.99,,,-99.99,custom,2013-06-26 23:08:00,
2013-06-26 19:13:00,80.2,79.3,29.91,East,92,1.0,-999.0,97,-99.99,,,-99.99,custom,2013-06-26 23:13:00,
2013-06-26 19:18:00,81.7,78.4,29.89,ESE,114,0.0,-999.0,90,-99.99,,,-99.99,custom,2013-06-26 23:18:00,
2013-06-26 19:23:00,81.1,78.1,29.89,SE,146,1.0,-999.0,90,-99.99,,,-99.99,custom,2013-06-26 23:23:00,
2013-06-26 19:28:00,81.0,76.1,29.90,ESE,107,2.0,-999.0,85,-99.99,,,-99.99,custom,2013-06-26 23:28:00,
2013-06-26 19:33:00,80.2,78.6,29.91,East,89,0.0,-999.0,95,-99.99,,,-99.99,custom,2013-06-26 23:33:00,
2013-06-26 19:38:00,79.0,77.7,29.91,East,83,0.0,-999.0,96,-99.99,,,-99.99,custom,2013-06-26 23:38:00,
2013-06-26 19:43:00,78.1,76.1,29.90,East,84,0.0,-999.0,94,-99.99,,,-99.99,custom,2013-06-26 23:43:00,
2013-06-26 19:48:00,77.0,73.4,29.89,East,83,1.0,-999.0,89,-99.99,,,-99.99,custom,2013-06-26 23:48:00,
2013-06-26 19:53:00,75.7,74.1,29.92,East,97,0.0,-999.0,95,-99.99,,,-99.99,custom,2013-06-26 23:53:00,
2013-06-26 19:58:00,75.6,73.8,29.88,ESE,105,1.0,-999.0,94,-99.99,,,-99.99,custom,2013-06-26 23:58:00,
2013-06-26 20:03:00,74.8,71.8,29.91,East,83,1.0,-999.0,90,-99.99,,,-99.99,custom,2013-06-27 00:03:00,
2013-06-26 20:08:00,73.2,71.6,29.90,NE,40,0.0,-999.0,95,-99.99,,,-99.99,custom,2013-06-27 00:08:00,
2013-06-26 20:13:00,73.6,72.9,29.91,ENE,62,0.0,-999.0,98,-99.99,,,-99.99,custom,2013-06-27 00:13:00,
2013-06-26 20:19:00,71.8,71.6,29.90,NE,51,0.0,-999.0,99,-99.99,,,-99.99,custom,2013-06-27 00:19:00,
2013-06-26 20:24:00,71.8,71.6,29.90,ENE,66,0.0,-999.0,99,-99.99,,,-99.99,custom,2013-06-27 00:24:00,
2013-06-26 20:29:00,72.5,72.3,29.90,ENE,71,1.0,-999.0,99,-99.99,,,-99.99,custom,2013-06-27 00:29:00,
2013-06-26 20:34:00,72.1,72.0,29.90,NE,42,1.0,-999.0,99,-99.99,,,-99.99,custom,2013-06-27 00:34:00,
2013-06-26 20:39:00,71.8,71.6,29.91,NNE,33,0.0,-999.0,99,-99.99,,,-99.99,custom,2013-06-27 00:39:00,
2013-06-26 20:44:00,71.6,71.4,29.93,ENE,75,0.0,-999.0,99,-99.99,,,-99.99,custom,2013-06-27 00:44:00,
2013-06-26 20:49:00,71.4,71.2,29.93,NNE,33,1.0,-999.0,99,-99.99,,,-99.99,custom,2013-06-27 00:49:00,
2013-06-26 20:54:00,71.4,71.2,29.91,NNE,33,1.0,-999.0,99,-99.99,,,-99.99,custom,2013-06-27 00:54:00,
2013-06-26 20:59:00,71.1,70.5,29.91,ENE,61,0.0,-999.0,98,-99.99,,,-99.99,custom,2013-06-27 00:59:00,
2013-06-26 21:04:00,70.9,70.7,29.90,East,89,1.0,-999.0,99,-99.99,,,-99.99,custom,2013-06-27 01:04:00,
2013-06-26 21:09:00,71.2,71.1,29.93,NE,44,1.0,-999.0,99,-99.99,,,-99.99,custom,2013-06-27 01:09:00,
2013-06-26 21:14:00,70.9,70.7,29.91,NNE,30,0.0,-999.0,99,-99.99,,,-99.99,custom,2013-06-27 01:14:00,
2013-06-26 21:19:00,71.6,71.4,29.89,NE,53,0.0,-999.0,99,-99.99,,,-99.99,custom,2013-06-27 01:19:00,
2013-06-26 21:24:00,71.4,71.2,29.91,NE,53,0.0,-999.0,99,-99.99,,,-99.99,custom,2013-06-27 01:24:00,
2013-06-26 21:29:00,71.4,70.9,29.91,NNE,21,1.0,-999.0,98,-99.99,,,-99.99,custom,2013-06-27 01:29:00,
2013-06-26 21:34:00,71.2,71.1,29.91,ENE,72,0.0,-999.0,99,-99.99,,,-99.99,custom,2013-06-27 01:34:00,
2013-06-26 21:39:00,70.2,70.0,29.93,North,353,0.0,-999.0,99,-99.99,,,-99.99,custom,2013-06-27 01:39:00,
2013-06-26 21:44:00,70.0,69.8,29.96,East,83,0.0,-999.0,99,-99.99,,,-99.99,custom,2013-06-27 01:44:00,
2013-06-26 21:49:00,70.9,70.7,29.90,East,95,0.0,-999.0,99,-99.99,,,-99.99,custom,2013-06-27 01:49:00,
2013-06-26 21:54:00,71.4,71.2,29.95,NNE,14,0.0,-999.0,99,-99.99,,,-99.99,custom,2013-06-27 01:54:00,
2013-06-26 21:59:00,71.8,71.6,29.94,East,90,1.0,-999.0,99,-99.99,,,-99.99,custom,2013-06-27 01:59:00,
2013-06-26 22:04:00,72.7,72.5,29.94,ESE,122,0.0,-999.0,99,-99.99,,,-99.99,custom,2013-06-27 02:04:00,
2013-06-26 22:09:00,71.6,71.2,29.93,ENE,65,1.0,-999.0,99,-99.99,,,-99.99,custom,2013-06-27 02:09:00,
2013-06-26 22:14:00,72.1,71.8,29.94,East,89,0.0,-999.0,99,-99.99,,,-99.99,custom,2013-06-27 02:14:00,
2013-06-26 22:19:00,72.1,72.0,29.93,NE,42,0.0,-999.0,99,-99.99,,,-99.99,custom,2013-06-27 02:19:00,
2013-06-26 22:24:00,71.6,71.4,29.94,East,85,0.0,-999.0,99,-99.99,,,-99.99,custom,2013-06-27 02:24:00,
2013-06-26 22:29:00,71.4,71.2,29.93,ESE,103,1.0,-999.0,99,-99.99,,,-99.99,custom,2013-06-27 02:29:00,
2013-06-26 22:34:00,71.6,71.2,29.94,East,83,1.0,-999.0,98,-99.99,,,-99.99,custom,2013-06-27 02:34:00,
2013-06-26 22:39:00,71.6,71.4,29.92,East,83,0.0,-999.0,99,-99.99,,,-99.99,custom,2013-06-27 02:39:00,
2013-06-26 22:44:00,72.0,71.2,29.93,East,85,2.0,-999.0,98,-99.99,,,-99.99,custom,2013-06-27 02:44:00,
2013-06-26 22:49:00,71.8,71.6,29.95,ESE,110,1.0,-999.0,99,-99.99,,,-99.99,custom,2013-06-27 02:49:00,
2013-06-26 22:54:00,71.4,71.2,29.95,ESE,102,1.0,-999.0,99,-99.99,,,-99.99,custom,2013-06-27 02:54:00,
2013-06-26 22:59:00,71.8,71.6,29.93,East,96,0.0,-999.0,99,-99.99,,,-99.99,custom,2013-06-27 02:59:00,
2013-06-26 23:04:00,71.2,71.1,29.95,ESE,116,0.0,-999.0,99,-99.99,,,-99.99,custom,2013-06-27 03:04:00,
2013-06-26 23:09:00,71.8,71.1,29.94,East,94,1.0,-999.0,98,-99.99,,,-99.99,custom,2013-06-27 03:09:00,
2013-06-26 23:14:00,72.1,72.0,29.94,ESE,116,1.0,-999.0,99,-99.99,,,-99.99,custom,2013-06-27 03:14:00,
2013-06-26 23:19:00,72.3,72.0,29.94,SE,127,1.0,-999.0,99,-99.99,,,-99.99,custom,2013-06-27 03:19:00,
2013-06-26 23:24:00,72.3,72.1,29.94,ESE,122,1.0,-999.0,99,-99.99,,,-99.99,custom,2013-06-27 03:24:00,
2013-06-26 23:29:00,71.2,71.1,29.94,East,87,1.0,-999.0,99,-99.99,,,-99.99,custom,2013-06-27 03:29:00,
2013-06-26 23:34:00,71.4,69.6,29.94,ESE,103,2.0,-999.0,94,-99.99,,,-99.99,custom,2013-06-27 03:34:00,
2013-06-26 23:39:00,71.4,71.2,29.93,ESE,107,1.0,-999.0,99,-99.99,,,-99.99,custom,2013-06-27 03:39:00,
2013-06-26 23:44:00,71.1,70.9,29.93,ENE,77,0.0,-999.0,99,-99.99,,,-99.99,custom,2013-06-27 03:44:00,
2013-06-26 23:49:00,71.2,71.1,29.97,ESE,112,1.0,-999.0,99,-99.99,,,-99.99,custom,2013-06-27 03:49:00,
2013-06-26 23:54:00,71.4,71.2,29.96,ENE,78,0.0,-999.0,99,-99.99,,,-99.99,custom,2013-06-27 03:54:00,
2013-06-26 23:59:00,71.6,71.1,29.92,East,89,1.0,-999.0,98,-99.99,,,-99.99,custom,2013-06-27 03:59:00,